| time (UTC) | temp C | wind direction | speed KPH | gust KPH | rain 1hr cm | rain 24hr cm | rain mn cm | humidity % | barometer mb |
| 20260504190107 | 10 | 278 | 3.2 | 9.7 | 0.00 | 0.00 | 0.00 | 46 | 1014.1 |
| 20260504185557 | 11 | 4 | 1.6 | 9.7 | 0.00 | 0.00 | 0.00 | 44 | 1014.1 |
| 20260504185057 | 11 | 330 | 1.6 | 16.1 | 0.00 | 0.00 | 0.00 | 46 | 1014.1 |
| 20260504184555 | 10 | 280 | 1.6 | 17.7 | 0.00 | 0.00 | 0.00 | 46 | 1014.0 |
| 20260504184101 | 10 | 288 | 4.8 | 17.7 | 0.00 | 0.00 | 0.00 | 48 | 1014.0 |
| 20260504183558 | 10 | 307 | 3.2 | 11.3 | 0.00 | 0.00 | 0.00 | 48 | 1013.9 |
| 20260504183102 | 10 | 6 | 4.8 | 11.3 | 0.00 | 0.00 | 0.00 | 50 | 1014.0 |
| 20260504182557 | 10 | 266 | 0.0 | 8.0 | 0.00 | 0.00 | 0.00 | 53 | 1014.0 |
| 20260504182057 | 10 | 0 | 1.6 | 12.9 | 0.00 | 0.00 | 0.00 | 51 | 1014.0 |
| 20260504181558 | 10 | 6 | 3.2 | 12.9 | 0.00 | 0.00 | 0.00 | 51 | 1014.0 |
| 20260504181057 | 10 | 23 | 6.4 | 12.9 | 0.00 | 0.00 | 0.00 | 52 | 1013.9 |
| 20260504180602 | 11 | 340 | 3.2 | 12.9 | 0.00 | 0.00 | 0.00 | 52 | 1013.7 |
| 20260504180140 | 11 | 334 | 4.8 | 14.5 | 0.00 | 0.00 | 0.00 | 51 | 1013.7 |
| 20260504175559 | 11 | 295 | 6.4 | 14.5 | 0.00 | 0.00 | 0.00 | 51 | 1013.6 |
| 20260504175057 | 11 | 148 | 4.8 | 12.9 | 0.00 | 0.00 | 0.00 | 50 | 1013.4 |
| 20260504174555 | 12 | 243 | 4.8 | 12.9 | 0.00 | 0.00 | 0.00 | 49 | 1013.4 |
| 20260504174059 | 12 | 335 | 4.8 | 14.5 | 0.00 | 0.00 | 0.00 | 47 | 1013.5 |
| 20260504173555 | 13 | 82 | 6.4 | 14.5 | 0.00 | 0.00 | 0.00 | 45 | 1013.5 |
| 20260504173055 | 14 | 355 | 4.8 | 14.5 | 0.00 | 0.00 | 0.00 | 45 | 1013.2 |
| 20260504172558 | 14 | 286 | 4.8 | 9.7 | 0.00 | 0.00 | 0.00 | 43 | 1013.2 |
| 20260504172057 | 14 | 11 | 3.2 | 11.3 | 0.00 | 0.00 | 0.00 | 43 | 1013.1 |
| 20260504171556 | 13 | 314 | 4.8 | 11.3 | 0.00 | 0.00 | 0.00 | 43 | 1013.0 |
| 20260504171058 | 13 | 298 | 3.2 | 11.3 | 0.00 | 0.00 | 0.00 | 44 | 1013.0 |
| 20260504170558 | 14 | 286 | 3.2 | 11.3 | 0.00 | 0.00 | 0.00 | 43 | 1013.2 |
| 20260504151059 | 8 | 0 | 0.0 | 3.2 | 0.00 | 0.00 | 0.00 | 64 | 1014.3 |
| 20260504150558 | 8 | 52 | 0.0 | 4.8 | 0.00 | 0.00 | 0.00 | 67 | 1014.3 |
| 20260504141057 | 5 | 0 | 0.0 | 0.0 | 0.00 | 0.00 | 0.00 | 75 | 1014.4 |
| 20260504140557 | 5 | 0 | 0.0 | 0.0 | 0.00 | 0.00 | 0.00 | 79 | 1014.4 |
| 20260504130559 | 1 | 181 | 1.6 | 1.6 | 0.00 | 0.00 | 0.00 | 84 | 1014.3 |
| 20260504120108 | 1 | 196 | 0.0 | 3.2 | 0.00 | 0.00 | 0.00 | 86 | 1014.4 |
| 20260504110557 | 1 | 184 | 0.0 | 4.8 | 0.00 | 0.00 | 0.00 | 81 | 1014.6 |
| 20260504100557 | 2 | 0 | 0.0 | 1.6 | 0.00 | 0.00 | 0.00 | 78 | 1014.9 |
| 20260504100116 | 2 | 0 | 0.0 | 1.6 | 0.00 | 0.00 | 0.00 | 78 | 1015.0 |
| 20260504081608 | 3 | 172 | 0.0 | 0.0 | 0.00 | 0.00 | 0.00 | 74 | 1015.3 |
| 20260504081058 | 3 | 0 | 0.0 | 1.6 | 0.00 | 0.00 | 0.00 | 74 | 1015.2 |
| 20260504080558 | 3 | 0 | 0.0 | 3.2 | 0.00 | 0.00 | 0.00 | 74 | 1015.2 |
| 20260504060107 | 4 | 195 | 0.0 | 3.2 | 0.00 | 0.00 | 0.00 | 72 | 1015.9 |
| 20260504050558 | 3 | 0 | 0.0 | 1.6 | 0.00 | 0.00 | 0.00 | 75 | 1016.3 |
| 20260504050110 | 4 | 0 | 0.0 | 3.2 | 0.00 | 0.00 | 0.00 | 74 | 1016.2 |
| 20260504045557 | 4 | 0 | 0.0 | 3.2 | 0.00 | 0.00 | 0.00 | 73 | 1016.3 |
| 20260504045057 | 5 | 0 | 0.0 | 3.2 | 0.00 | 0.00 | 0.00 | 73 | 1016.1 |
| 20260504044626 | 5 | 167 | 0.0 | 1.6 | 0.00 | 0.00 | 0.00 | 74 | 1016.2 |
| 20260504044057 | 5 | 0 | 0.0 | 3.2 | 0.00 | 0.00 | 0.00 | 74 | 1016.1 |
| 20260504043600 | 5 | 136 | 1.6 | 4.8 | 0.00 | 0.00 | 0.00 | 74 | 1016.1 |
| 20260504043102 | 5 | 101 | 1.6 | 4.8 | 0.00 | 0.00 | 0.00 | 75 | 1016.0 |
| 20260504042559 | 5 | 113 | 0.0 | 3.2 | 0.00 | 0.00 | 0.00 | 74 | 1016.0 |
| 20260504042102 | 5 | 103 | 1.6 | 3.2 | 0.00 | 0.00 | 0.00 | 73 | 1016.0 |
| 20260504041559 | 5 | 0 | 0.0 | 1.6 | 0.00 | 0.00 | 0.00 | 72 | 1015.9 |
| 20260504041058 | 5 | 0 | 0.0 | 1.6 | 0.00 | 0.00 | 0.00 | 72 | 1015.9 |
| 20260504040557 | 6 | 0 | 0.0 | 1.6 | 0.00 | 0.00 | 0.00 | 70 | 1016.1 |
| 20260504040104 | 6 | 217 | 0.0 | 1.6 | 0.00 | 0.00 | 0.00 | 70 | 1016.2 |
| 20260504035558 | 6 | 165 | 0.0 | 1.6 | 0.00 | 0.00 | 0.00 | 70 | 1016.1 |
| 20260504035058 | 6 | 0 | 0.0 | 1.6 | 0.00 | 0.00 | 0.00 | 69 | 1016.1 |
| 20260504034617 | 6 | 0 | 0.0 | 4.8 | 0.00 | 0.00 | 0.00 | 68 | 1016.1 |
| 20260504034100 | 6 | 0 | 0.0 | 4.8 | 0.00 | 0.00 | 0.00 | 66 | 1015.9 |
| 20260504033557 | 7 | 149 | 3.2 | 4.8 | 0.00 | 0.00 | 0.00 | 66 | 1015.9 |
| 20260504033104 | 7 | 0 | 0.0 | 6.4 | 0.00 | 0.00 | 0.00 | 66 | 1015.8 |
| 20260504032557 | 7 | 0 | 1.6 | 6.4 | 0.00 | 0.00 | 0.00 | 65 | 1015.8 |
| 20260504032057 | 7 | 0 | 0.0 | 3.2 | 0.00 | 0.00 | 0.00 | 64 | 1015.7 |
| 20260504031604 | 7 | 0 | 0.0 | 3.2 | 0.00 | 0.00 | 0.00 | 63 | 1015.5 |
| 20260504031101 | 7 | 0 | 0.0 | 1.6 | 0.00 | 0.00 | 0.00 | 64 | 1015.5 |
| 20260504030558 | 7 | 0 | 0.0 | 1.6 | 0.00 | 0.00 | 0.00 | 64 | 1015.4 |
| 20260504030058 | 7 | 0 | 0.0 | 3.2 | 0.00 | 0.00 | 0.00 | 64 | 1015.4 |
| 20260504025557 | 7 | 0 | 0.0 | 3.2 | 0.00 | 0.00 | 0.00 | 64 | 1015.3 |
| 20260504025057 | 7 | 15 | 0.0 | 3.2 | 0.00 | 0.00 | 0.00 | 64 | 1015.2 |
| 20260504024600 | 7 | 53 | 0.0 | 3.2 | 0.00 | 0.00 | 0.00 | 64 | 1015.2 |
| 20260504024056 | 7 | 0 | 0.0 | 8.0 | 0.00 | 0.00 | 0.00 | 64 | 1015.1 |
| 20260504023557 | 7 | 0 | 1.6 | 8.0 | 0.00 | 0.00 | 0.00 | 65 | 1014.9 |
| 20260504023058 | 7 | 48 | 0.0 | 8.0 | 0.00 | 0.00 | 0.00 | 65 | 1014.9 |
| 20260504022557 | 7 | 64 | 4.8 | 8.0 | 0.00 | 0.00 | 0.00 | 64 | 1014.7 |
| 20260504022057 | 8 | 41 | 0.0 | 3.2 | 0.00 | 0.00 | 0.00 | 62 | 1014.6 |
| 20260504021557 | 8 | 68 | 0.0 | 3.2 | 0.00 | 0.00 | 0.00 | 59 | 1014.7 |
| 20260504021055 | 8 | 0 | 0.0 | 3.2 | 0.00 | 0.00 | 0.00 | 57 | 1014.7 |
| 20260504020555 | 9 | 199 | 0.0 | 3.2 | 0.00 | 0.00 | 0.00 | 55 | 1014.7 |
| 20260504020104 | 9 | 0 | 0.0 | 1.6 | 0.00 | 0.00 | 0.00 | 54 | 1014.7 |
| 20260504015557 | 10 | 248 | 0.0 | 4.8 | 0.00 | 0.00 | 0.00 | 55 | 1014.7 |
| 20260504015058 | 10 | 302 | 0.0 | 8.0 | 0.00 | 0.00 | 0.00 | 55 | 1014.6 |
| 20260504014605 | 10 | 298 | 1.6 | 9.7 | 0.00 | 0.00 | 0.00 | 54 | 1014.6 |
| 20260504014058 | 10 | 282 | 3.2 | 9.7 | 0.00 | 0.00 | 0.00 | 52 | 1014.4 |
| 20260504013558 | 10 | 127 | 1.6 | 9.7 | 0.00 | 0.00 | 0.00 | 48 | 1014.4 |
| 20260504013106 | 10 | 250 | 1.6 | 8.0 | 0.00 | 0.00 | 0.00 | 44 | 1014.4 |
| 20260504012559 | 11 | 23 | 3.2 | 8.0 | 0.00 | 0.00 | 0.00 | 45 | 1014.3 |
| 20260504012058 | 11 | 290 | 3.2 | 16.1 | 0.00 | 0.00 | 0.00 | 45 | 1014.2 |
| 20260504011600 | 11 | 299 | 6.4 | 16.1 | 0.00 | 0.00 | 0.00 | 43 | 1014.2 |
| 20260504011100 | 11 | 42 | 1.6 | 11.3 | 0.00 | 0.00 | 0.00 | 42 | 1014.2 |
| 20260504010557 | 11 | 307 | 0.0 | 22.5 | 0.00 | 0.00 | 0.00 | 43 | 1014.2 |
| 20260504010059 | 10 | 87 | 4.8 | 29.0 | 0.00 | 0.00 | 0.00 | 43 | 1014.1 |
| 20260504005559 | 10 | 127 | 9.7 | 29.0 | 0.00 | 0.00 | 0.00 | 45 | 1014.0 |
| 20260504005100 | 10 | 167 | 12.9 | 29.0 | 0.00 | 0.00 | 0.00 | 46 | 1014.2 |
| 20260504004606 | 10 | 179 | 12.9 | 27.4 | 0.00 | 0.00 | 0.00 | 47 | 1014.5 |
| 20260504004059 | 10 | 237 | 9.7 | 27.4 | 0.00 | 0.00 | 0.00 | 46 | 1014.4 |
| 20260504003559 | 10 | 219 | 6.4 | 16.1 | 0.00 | 0.00 | 0.00 | 48 | 1014.4 |
| 20260504003058 | 9 | 242 | 3.2 | 17.7 | 0.00 | 0.00 | 0.00 | 52 | 1014.2 |
| 20260504002605 | 8 | 130 | 4.8 | 17.7 | 0.00 | 0.00 | 0.00 | 57 | 1014.4 |
| 20260504002100 | 8 | 159 | 3.2 | 27.4 | 0.00 | 0.00 | 0.00 | 58 | 1014.5 |
| 20260504001602 | 9 | 159 | 8.0 | 27.4 | 0.00 | 0.00 | 0.00 | 56 | 1014.8 |
| 20260504001058 | 9 | 168 | 11.3 | 27.4 | 0.00 | 0.00 | 0.00 | 54 | 1014.9 |
| 20260504000559 | 9 | 246 | 8.0 | 22.5 | 0.00 | 0.00 | 0.00 | 56 | 1014.8 |
| 20260503235600 | 10 | 266 | 9.7 | 35.4 | 0.00 | 0.00 | 0.00 | 51 | 1014.7 |
| 20260503235058 | 10 | 185 | 12.9 | 35.4 | 0.00 | 0.00 | 0.00 | 47 | 1015.1 |
| 20260503234558 | 11 | 188 | 17.7 | 32.2 | 0.00 | 0.00 | 0.00 | 43 | 1014.8 |
| 20260503234058 | 11 | 162 | 9.7 | 22.5 | 0.00 | 0.00 | 0.00 | 42 | 1014.8 |
| 20260503233600 | 11 | 154 | 4.8 | 19.3 | 0.00 | 0.00 | 0.00 | 41 | 1014.7 |
| 20260503233058 | 11 | 210 | 1.6 | 14.5 | 0.00 | 0.00 | 0.00 | 43 | 1014.6 |
| 20260503232558 | 11 | 256 | 3.2 | 14.5 | 0.00 | 0.00 | 0.00 | 40 | 1014.6 |
| 20260503232058 | 11 | 311 | 4.8 | 19.3 | 0.00 | 0.00 | 0.00 | 43 | 1014.5 |
| 20260503231607 | 12 | 327 | 9.7 | 19.3 | 0.00 | 0.00 | 0.00 | 43 | 1014.5 |
| 20260503231059 | 12 | 324 | 1.6 | 8.0 | 0.00 | 0.00 | 0.00 | 44 | 1014.8 |
| 20260503230559 | 13 | 358 | 3.2 | 8.0 | 0.00 | 0.00 | 0.00 | 39 | 1014.9 |
| 20260503230116 | 13 | 76 | 1.6 | 6.4 | 0.00 | 0.00 | 0.00 | 38 | 1014.6 |
| 20260503225558 | 14 | 328 | 3.2 | 6.4 | 0.00 | 0.00 | 0.00 | 35 | 1014.5 |
| 20260503225058 | 14 | 352 | 0.0 | 6.4 | 0.00 | 0.00 | 0.00 | 36 | 1014.4 |
| 20260503224603 | 14 | 238 | 0.0 | 6.4 | 0.00 | 0.00 | 0.00 | 37 | 1014.5 |
| 20260503224058 | 13 | 322 | 0.0 | 8.0 | 0.00 | 0.00 | 0.00 | 37 | 1014.7 |
| 20260503223558 | 13 | 0 | 1.6 | 8.0 | 0.00 | 0.00 | 0.00 | 40 | 1014.6 |
| 20260503223059 | 13 | 234 | 0.0 | 8.0 | 0.00 | 0.00 | 0.00 | 40 | 1015.0 |
| 20260503222559 | 13 | 306 | 3.2 | 16.1 | 0.00 | 0.00 | 0.00 | 38 | 1014.9 |
| 20260503222058 | 13 | 239 | 3.2 | 20.9 | 0.00 | 0.00 | 0.00 | 42 | 1014.8 |
| 20260503221602 | 14 | 324 | 4.8 | 24.1 | 0.00 | 0.00 | 0.00 | 41 | 1014.9 |
| 20260503221101 | 13 | 307 | 8.0 | 24.1 | 0.00 | 0.00 | 0.00 | 42 | 1015.0 |
| 20260503220558 | 14 | 259 | 8.0 | 24.1 | 0.00 | 0.00 | 0.00 | 42 | 1015.2 |
| 20260503220058 | 13 | 276 | 6.4 | 12.9 | 0.00 | 0.00 | 0.00 | 43 | 1015.2 |
| 20260503215558 | 13 | 254 | 1.6 | 9.7 | 0.00 | 0.00 | 0.00 | 45 | 1015.4 |
| 20260503215058 | 12 | 243 | 1.6 | 9.7 | 0.00 | 0.00 | 0.00 | 45 | 1015.5 |
| 20260503214603 | 12 | 265 | 0.0 | 8.0 | 0.00 | 0.00 | 0.00 | 44 | 1015.6 |
| 20260503214058 | 12 | 0 | 0.0 | 17.7 | 0.00 | 0.00 | 0.00 | 43 | 1015.5 |
| 20260503213558 | 11 | 0 | 3.2 | 20.9 | 0.00 | 0.00 | 0.00 | 42 | 1015.5 |
| 20260503213108 | 11 | 57 | 9.7 | 20.9 | 0.00 | 0.00 | 0.00 | 43 | 1015.6 |
| 20260503212559 | 11 | 67 | 1.6 | 12.9 | 0.00 | 0.00 | 0.00 | 44 | 1015.7 |
| 20260503212058 | 10 | 46 | 3.2 | 12.9 | 0.00 | 0.00 | 0.00 | 50 | 1015.5 |
| 20260503211613 | 10 | 337 | 4.8 | 12.9 | 0.00 | 0.00 | 0.00 | 54 | 1015.2 |
| 20260503211058 | 10 | 325 | 3.2 | 16.1 | 0.00 | 0.00 | 0.00 | 61 | 1015.5 |
| 20260503210558 | 9 | 266 | 3.2 | 20.9 | 0.00 | 0.00 | 0.00 | 61 | 1016.1 |
| 20260503210059 | 9 | 239 | 6.4 | 24.1 | 0.00 | 0.00 | 0.00 | 61 | 1016.5 |
| 20260503205558 | 9 | 191 | 9.7 | 24.1 | 0.00 | 0.00 | 0.00 | 61 | 1016.7 |
| 20260503205058 | 10 | 148 | 8.0 | 20.9 | 0.00 | 0.00 | 0.00 | 60 | 1016.9 |
| 20260503204559 | 10 | 219 | 8.0 | 19.3 | 0.00 | 0.00 | 0.00 | 56 | 1016.4 |
| 20260503204057 | 10 | 176 | 9.7 | 19.3 | 0.00 | 0.00 | 0.00 | 53 | 1016.3 |
| 20260503203559 | 11 | 210 | 9.7 | 19.3 | 0.00 | 0.00 | 0.00 | 52 | 1016.4 |
| 20260503203059 | 11 | 180 | 9.7 | 19.3 | 0.00 | 0.00 | 0.00 | 47 | 1016.4 |
| 20260503202559 | 11 | 153 | 1.6 | 20.9 | 0.00 | 0.00 | 0.00 | 48 | 1016.0 |
| 20260503202104 | 11 | 0 | 1.6 | 20.9 | 0.00 | 0.00 | 0.00 | 51 | 1015.8 |
| 20260503201559 | 11 | 154 | 6.4 | 19.3 | 0.00 | 0.00 | 0.00 | 51 | 1016.1 |
| 20260503201058 | 11 | 137 | 3.2 | 19.3 | 0.00 | 0.00 | 0.00 | 51 | 1016.0 |
| 20260503200558 | 11 | 287 | 8.0 | 24.1 | 0.00 | 0.00 | 0.00 | 48 | 1016.0 |
| 20260503200118 | 11 | 178 | 6.4 | 24.1 | 0.00 | 0.00 | 0.00 | 48 | 1016.4 |
| 20260503195558 | 12 | 198 | 6.4 | 25.7 | 0.00 | 0.00 | 0.00 | 46 | 1016.4 |
| 20260503195058 | 12 | 181 | 6.4 | 32.2 | 0.00 | 0.00 | 0.00 | 42 | 1016.4 |
| 20260503194604 | 12 | 139 | 12.9 | 32.2 | 0.00 | 0.00 | 0.00 | 37 | 1016.4 |
| 20260503194058 | 12 | 136 | 16.1 | 33.8 | 0.00 | 0.00 | 0.00 | 37 | 1016.4 |
| 20260503193559 | 12 | 124 | 17.7 | 35.4 | 0.00 | 0.00 | 0.00 | 37 | 1016.4 |
| 20260503193104 | 12 | 119 | 9.7 | 35.4 | 0.00 | 0.00 | 0.00 | 38 | 1016.4 |
| 20260503192558 | 12 | 143 | 20.9 | 45.1 | 0.00 | 0.00 | 0.00 | 38 | 1016.5 |
| 20260503192058 | 13 | 98 | 19.3 | 45.1 | 0.00 | 0.00 | 0.00 | 37 | 1016.4 |
| 20260503191606 | 13 | 150 | 16.1 | 35.4 | 0.00 | 0.00 | 0.00 | 36 | 1016.4 |
| 20260503191059 | 13 | 209 | 16.1 | 35.4 | 0.00 | 0.00 | 0.00 | 35 | 1016.2 |
| 20260503190558 | 13 | 141 | 12.9 | 37.0 | 0.00 | 0.00 | 0.00 | 36 | 1016.0 |